TimeEST,TemperatureF,Dew PointF,Humidity,Sea Level PressureIn,VisibilityMPH,Wind Direction,Wind SpeedMPH,Gust SpeedMPH,PrecipitationIn,Events,Conditions,WindDirDegrees,DateUTC
12:15 AM,55.4,53.6,94,30.17,3.0,SW,3.5,-,N/A,,Overcast,230,2012-12-03 05:15:00
12:35 AM,53.6,51.8,94,30.17,5.0,SW,3.5,-,N/A,,Overcast,230,2012-12-03 05:35:00
12:55 AM,55.4,53.6,94,30.17,5.0,SW,4.6,-,N/A,,Overcast,230,2012-12-03 05:55:00
1:15 AM,55.4,53.6,94,30.18,6.0,WSW,5.8,-,N/A,,Overcast,240,2012-12-03 06:15:00
1:55 AM,55.4,53.6,94,30.18,5.0,SW,4.6,-,N/A,,Overcast,230,2012-12-03 06:55:00
2:15 AM,55.4,53.6,94,30.19,5.0,WSW,3.5,-,N/A,,Overcast,250,2012-12-03 07:15:00
2:35 AM,53.6,53.6,100,30.19,6.0,SW,3.5,-,N/A,,Overcast,230,2012-12-03 07:35:00
2:55 AM,53.6,53.6,100,30.20,7.0,SW,3.5,-,N/A,,Overcast,230,2012-12-03 07:55:00
3:15 AM,55.4,53.6,94,30.20,7.0,WSW,4.6,-,N/A,,Overcast,240,2012-12-03 08:15:00
3:35 AM,55.4,53.6,94,30.20,7.0,SW,4.6,-,N/A,,Overcast,220,2012-12-03 08:35:00
3:55 AM,55.4,53.6,94,30.19,7.0,Calm,Calm,-,N/A,,Overcast,0,2012-12-03 08:55:00
4:15 AM,53.6,53.6,100,30.19,4.0,Calm,Calm,-,N/A,,Overcast,0,2012-12-03 09:15:00
4:35 AM,53.6,53.6,100,30.19,2.0,Calm,Calm,-,N/A,,Overcast,0,2012-12-03 09:35:00
4:55 AM,53.6,51.8,94,30.19,1.8,South,3.5,-,N/A,,Overcast,190,2012-12-03 09:55:00
5:15 AM,53.6,53.6,100,30.19,3.0,Calm,Calm,-,N/A,,Overcast,0,2012-12-03 10:15:00
5:35 AM,53.6,53.6,100,30.20,2.5,Calm,Calm,-,N/A,,Overcast,0,2012-12-03 10:35:00
5:55 AM,53.6,51.8,94,30.20,0.8,Calm,Calm,-,N/A,,Overcast,0,2012-12-03 10:55:00
6:15 AM,53.6,51.8,94,30.21,0.5,Calm,Calm,-,N/A,,Overcast,0,2012-12-03 11:15:00
6:55 AM,51.8,51.8,100,30.22,0.5,Calm,Calm,-,N/A,,Overcast,0,2012-12-03 11:55:00
7:15 AM,53.6,51.8,94,30.23,0.8,SSW,3.5,-,N/A,,Overcast,200,2012-12-03 12:15:00
7:35 AM,53.6,53.6,100,30.24,1.2,South,3.5,-,N/A,,Overcast,180,2012-12-03 12:35:00
8:15 AM,53.6,51.8,94,30.24,0.5,Calm,Calm,-,N/A,,Overcast,0,2012-12-03 13:15:00
8:35 AM,53.6,53.6,100,30.24,0.5,Calm,Calm,-,N/A,,Overcast,0,2012-12-03 13:35:00
8:55 AM,55.4,53.6,94,30.24,0.8,South,3.5,-,N/A,,Overcast,180,2012-12-03 13:55:00
9:15 AM,55.4,55.4,100,30.24,0.8,South,3.5,-,N/A,,Overcast,190,2012-12-03 14:15:00
9:35 AM,55.4,55.4,100,30.24,3.0,SSW,4.6,-,N/A,,Overcast,200,2012-12-03 14:35:00
10:15 AM,55.4,55.4,100,30.24,2.0,South,4.6,-,N/A,,Overcast,190,2012-12-03 15:15:00
10:35 AM,55.4,55.4,100,30.24,2.0,South,5.8,-,N/A,,Overcast,190,2012-12-03 15:35:00
10:55 AM,55.4,55.4,100,30.24,3.0,SSW,4.6,-,N/A,,Overcast,200,2012-12-03 15:55:00
11:15 AM,55.4,55.4,100,30.22,4.0,South,4.6,-,N/A,,Overcast,190,2012-12-03 16:15:00
11:35 AM,57.2,55.4,94,30.22,5.0,SSW,4.6,-,N/A,,Overcast,200,2012-12-03 16:35:00
11:55 AM,57.2,55.4,94,30.21,7.0,South,4.6,-,N/A,,Overcast,180,2012-12-03 16:55:00
12:15 PM,59.0,55.4,88,30.20,8.0,South,4.6,-,N/A,,Overcast,180,2012-12-03 17:15:00
12:35 PM,57.2,55.4,94,30.20,10.0,South,6.9,-,N/A,,Overcast,190,2012-12-03 17:35:00
12:55 PM,59.0,55.4,88,30.19,10.0,South,5.8,-,N/A,,Overcast,180,2012-12-03 17:55:00
1:15 PM,59.0,55.4,88,30.18,10.0,SSE,4.6,-,N/A,,Overcast,160,2012-12-03 18:15:00
1:35 PM,60.8,55.4,82,30.19,10.0,South,5.8,-,N/A,,Overcast,190,2012-12-03 18:35:00
1:55 PM,60.8,55.4,82,30.19,10.0,SSW,5.8,-,N/A,,Overcast,210,2012-12-03 18:55:00
2:15 PM,60.8,55.4,82,30.18,10.0,South,5.8,-,N/A,,Overcast,190,2012-12-03 19:15:00
2:35 PM,60.8,53.6,77,30.18,10.0,SSW,5.8,-,N/A,,Overcast,200,2012-12-03 19:35:00
2:55 PM,60.8,53.6,77,30.19,10.0,South,6.9,-,N/A,,Overcast,190,2012-12-03 19:55:00
3:15 PM,60.8,55.4,82,30.18,10.0,South,8.1,-,N/A,,Overcast,190,2012-12-03 20:15:00
3:35 PM,60.8,53.6,77,30.17,10.0,South,5.8,-,N/A,,Overcast,180,2012-12-03 20:35:00
3:55 PM,60.8,55.4,82,30.17,10.0,SSE,3.5,-,N/A,,Overcast,160,2012-12-03 20:55:00
4:15 PM,60.8,53.6,77,30.18,10.0,SSW,4.6,-,N/A,,Mostly Cloudy,200,2012-12-03 21:15:00
4:35 PM,60.8,53.6,77,30.19,10.0,South,4.6,-,N/A,,Overcast,180,2012-12-03 21:35:00
4:55 PM,60.8,53.6,77,30.18,10.0,South,4.6,-,N/A,,Overcast,180,2012-12-03 21:55:00
5:15 PM,59.0,53.6,82,30.18,10.0,SE,4.6,-,N/A,,Overcast,140,2012-12-03 22:15:00
5:35 PM,59.0,53.6,82,30.19,8.0,SSW,3.5,-,N/A,,Overcast,200,2012-12-03 22:35:00
5:55 PM,57.2,55.4,94,30.19,5.0,South,3.5,-,N/A,,Overcast,190,2012-12-03 22:55:00
6:15 PM,57.2,55.4,94,30.19,9.0,Calm,Calm,-,N/A,,Overcast,0,2012-12-03 23:15:00
6:35 PM,57.2,55.4,94,30.19,10.0,Calm,Calm,-,N/A,,Overcast,0,2012-12-03 23:35:00
6:55 PM,57.2,55.4,94,30.19,10.0,Calm,Calm,-,N/A,,Overcast,0,2012-12-03 23:55:00
7:15 PM,55.4,55.4,100,30.19,5.0,SSE,3.5,-,N/A,,Overcast,150,2012-12-04 00:15:00
7:35 PM,55.4,53.6,94,30.19,10.0,SSE,3.5,-,N/A,,Scattered Clouds,150,2012-12-04 00:35:00
7:55 PM,55.4,53.6,94,30.19,10.0,SSE,3.5,-,N/A,,Clear,160,2012-12-04 00:55:00
8:15 PM,53.6,51.8,94,30.19,1.5,Calm,Calm,-,N/A,,Clear,0,2012-12-04 01:15:00
8:35 PM,53.6,53.6,100,30.19,6.0,Calm,Calm,-,N/A,,Clear,0,2012-12-04 01:35:00
8:55 PM,53.6,53.6,100,30.19,6.0,Calm,Calm,-,N/A,,Clear,0,2012-12-04 01:55:00
9:15 PM,53.6,51.8,94,30.19,8.0,Calm,Calm,-,N/A,,Scattered Clouds,0,2012-12-04 02:15:00
9:35 PM,50.0,46.4,87,30.18,3.0,South,3.5,-,N/A,,Partly Cloudy,190,2012-12-04 02:35:00
9:55 PM,51.8,51.8,100,30.18,10.0,South,3.5,-,N/A,,Clear,190,2012-12-04 02:55:00
10:15 PM,51.8,51.8,100,30.18,9.0,South,4.6,-,N/A,,Clear,180,2012-12-04 03:15:00
10:35 PM,50.0,48.2,94,30.17,10.0,South,4.6,-,N/A,,Clear,190,2012-12-04 03:35:00
10:55 PM,53.6,51.8,94,30.17,10.0,South,3.5,-,N/A,,Clear,190,2012-12-04 03:55:00
11:15 PM,53.6,51.8,94,30.17,10.0,South,4.6,-,N/A,,Clear,180,2012-12-04 04:15:00
11:35 PM,53.6,51.8,94,30.17,10.0,South,3.5,-,N/A,,Clear,190,2012-12-04 04:35:00
11:55 PM,53.6,51.8,94,30.18,10.0,SSW,5.8,-,N/A,,Clear,200,2012-12-04 04:55:00